Find Starlink 30572

NORAD ID: 58114 Int'l Des: 2023-161 Owner: SPXS Country: US Constellation: starlink operational
LEOCIRCULAR

当前视图

正在加载3D地球...

About Starlink 30572

Starlink 30572 (NORAD 58114) is a starlink constellation satellite (v2 mini) launched Oct 21, 2023 by SPXS of US. It operates in LEO, CIRCULAR orbit with a mass of 730.00 kg.

即将过境

Passes for default location (London). Set your location on the main map for personalized predictions.

高度历史

Loading altitude history...

两行轨道根数

1 58114U 23161T 26237.03973015 -.00001164 00000-0 -23316-4 0 9993
2 58114 53.1605 103.0752 0001271 99.5549 260.5597 15.34396866160205
Epoch: Aug 25, 2026 • Age: 11 hours

当前状态

高度 465.2 km
远地点 / 近地点 N/A
速度 7.63 km/s
星下点 -7.70°S, 56.41°W
发射日期 Oct 21, 2023
运行时间 2.8 years
类型 internet

技术详情

分类 Payload
质量 730.00 kg
干质量 700.00 kg
总质量 730.00 kg
长度 0.30 m
直径 4.10 m
跨度 29.00 m
形状 Box + pan
制造商 SPXS
平台类型 Starlink V2M
阶段状态 In Orbit
所有者/国家 SPXS/US

Most Searched